Orange, MA

9:35 PM EDT on May 28, 2017 (GMT -0400)
Orange Municipal

Weather History for KORE - November, 2014

Change the Weather History Date:

Tuesday, November 4, 2014

  Actual Average Record
Temperature  
Mean Temperature 44 °F -  
Max Temperature 61 °F 49 °F 69 °F (2005)
Min Temperature 28 °F 29 °F 19 °F (1998)
Degree Days  
Heating Degree Days 20    
Moisture  
Dew Point 33 °F    
Average Humidity 73    
Maximum Humidity 96    
Minimum Humidity 31    
Precipitation  
Precipitation 0.00 in - - ()
Sea Level Pressure  
Sea Level Pressure 30.08 in    
Wind  
Wind Speed 1 mph (SSE)    
Max Wind Speed 9 mph    
Max Gust Speed -    
Visibility 10 miles    
Events      
Averages and records for this station are not official NWS values.
T = Trace of Precipitation, MM = Missing Value Source: NWS Daily Summary

Daily Weather History Graph

Daily Weather History Graph

Search for Another Location

Airport or City:

Trip Planner

Search our weather history database for the weather conditions in past years. The results will help you decide how hot, cold, wet, or windy it might be!

Date:

Astronomy

Nov. 04, 2014 Rise Set
Actual Time 6:26 AM EST 4:38 PM EST
Civil Twilight 5:57 AM EST 5:07 PM EST
Nautical Twilight 5:23 AM EST 5:41 PM EST
Astronomical Twilight 4:50 AM EST 6:14 PM EST
Moon 3:26 PM EST (11/4) 3:37 AM EST (11/4)
Length of Visible Light 11h 10m
Length of Day
10h 11m
Waxing Gibbous, 94% of the Moon is Illuminated
Nov 4
Waxing Gibbous
Nov 6
Full
Nov 14
Last Quarter
Nov 22
New
Nov 29
First Quarter

Hourly Weather History & Observations

Time (EST) Temp. Windchill Dew Point Humidity Pressure Visibility Wind Dir Wind Speed Gust Speed Precip Events Conditions
12:52 AM 28.0 °F - 26.1 °F 92% 30.10 in 10.0 mi Calm Calm - N/A   Clear
1:52 AM 30.0 °F - 28.0 °F 92% 30.09 in 10.0 mi Calm Calm - N/A   Mostly Cloudy
2:52 AM 32.0 °F - 30.0 °F 92% 30.09 in 10.0 mi Calm Calm - N/A   Overcast
3:52 AM 33.1 °F - 30.0 °F 89% 30.09 in 10.0 mi Calm Calm - N/A   Overcast
4:52 AM 34.0 °F - 30.9 °F 89% 30.11 in 10.0 mi Calm Calm - N/A   Overcast
5:52 AM 32.0 °F - 30.9 °F 96% 30.12 in 10.0 mi Calm Calm - N/A   Mostly Cloudy
6:52 AM 32.0 °F - 30.9 °F 96% 30.14 in 10.0 mi Calm Calm - N/A   Scattered Clouds
7:52 AM 36.0 °F - 32.0 °F 86% 30.15 in 10.0 mi Calm Calm - N/A   Overcast
8:52 AM 41.0 °F - 34.0 °F 76% 30.14 in 10.0 mi Calm Calm - N/A   Mostly Cloudy
9:52 AM 51.1 °F - 36.0 °F 56% 30.13 in 10.0 mi Variable 3.5 mph - N/A   Mostly Cloudy
10:52 AM 55.0 °F - 28.9 °F 37% 30.13 in 10.0 mi SSE 6.9 mph - N/A   Overcast
11:52 AM 57.9 °F - 28.0 °F 32% 30.10 in 10.0 mi SSW 8.1 mph - N/A   Clear
12:52 PM 59.0 °F - 28.0 °F 31% 30.07 in 10.0 mi South 9.2 mph - N/A   Clear
1:52 PM 60.1 °F - 32.0 °F 35% 30.06 in 10.0 mi South 8.1 mph - N/A   Clear
2:52 PM 61.0 °F - 33.1 °F 35% 30.06 in 10.0 mi South 8.1 mph - N/A   Mostly Cloudy
3:52 PM 59.0 °F - 35.1 °F 41% 30.06 in 10.0 mi SSE 3.5 mph - N/A   Partly Cloudy
4:52 PM 52.0 °F - 39.0 °F 61% 30.06 in 10.0 mi Calm Calm - N/A   Clear
5:52 PM 46.9 °F - 39.9 °F 77% 30.06 in 10.0 mi Calm Calm - N/A   Clear
6:52 PM 44.1 °F - 39.0 °F 82% 30.06 in 10.0 mi Calm Calm - N/A   Clear
7:52 PM 43.0 °F - 39.0 °F 86% 30.05 in 10.0 mi Calm Calm - N/A   Clear
8:52 PM 39.9 °F - 37.0 °F 89% 30.04 in 10.0 mi Calm Calm - N/A   Clear
9:52 PM 39.0 °F - 36.0 °F 89% 30.01 in 10.0 mi Calm Calm - N/A   Clear
10:52 PM 39.0 °F - 36.0 °F 89% 30.00 in 10.0 mi Calm Calm - N/A   Clear
11:52 PM 36.0 °F 32.1 °F 34.0 °F 93% 30.00 in 10.0 mi NNE 4.6 mph - N/A   Clear